Time,TemperatureF,DewpointF,PressureIn,WindDirection,WindDirectionDegrees,WindSpeedMPH,WindSpeedGustMPH,Humidity,HourlyPrecipIn,Conditions,Clouds,dailyrainin,SoftwareType,DateUTC
2013-03-02 00:00:00,45.0,23.0,-100.00,North,-999,0.0,0.0,42,-99.99,,,0.00,,2013-03-02 07:00:00,
2013-03-02 00:11:00,45.0,23.0,-100.00,North,-999,0.0,0.0,42,-99.99,,,0.00,,2013-03-02 07:11:00,
2013-03-02 00:21:00,45.0,23.0,-100.00,North,-999,0.0,0.0,42,-99.99,,,0.00,,2013-03-02 07:21:00,
2013-03-02 00:32:00,45.0,23.0,-100.00,North,-999,0.0,0.0,42,-99.99,,,0.00,,2013-03-02 07:32:00,
2013-03-02 00:42:00,45.0,23.0,-100.00,North,-999,0.0,0.0,42,-99.99,,,0.00,,2013-03-02 07:42:00,
2013-03-02 00:51:00,45.0,23.0,-100.00,North,-999,0.0,0.0,42,-99.99,,,0.00,,2013-03-02 07:51:00,
2013-03-02 01:00:00,44.0,23.0,-100.00,North,-999,0.0,0.0,43,-99.99,,,0.00,,2013-03-02 08:00:00,
2013-03-02 01:11:00,44.0,23.0,-100.00,North,-999,0.0,0.0,43,-99.99,,,0.00,,2013-03-02 08:11:00,
2013-03-02 01:21:00,44.0,23.0,-100.00,North,-999,0.0,0.0,43,-99.99,,,0.00,,2013-03-02 08:21:00,
2013-03-02 01:32:00,44.0,23.0,-100.00,North,-999,0.0,0.0,43,-99.99,,,0.00,,2013-03-02 08:32:00,
2013-03-02 01:42:00,44.0,23.0,-100.00,North,-999,0.0,0.0,43,-99.99,,,0.00,,2013-03-02 08:42:00,
2013-03-02 01:52:00,44.0,23.0,-100.00,North,-999,0.0,0.0,43,-99.99,,,0.00,,2013-03-02 08:52:00,
2013-03-02 02:01:00,44.0,23.0,-100.00,North,-999,0.0,0.0,43,-99.99,,,0.00,,2013-03-02 09:01:00,
2013-03-02 02:11:00,45.0,23.0,-100.00,North,-999,0.0,0.0,42,-99.99,,,0.00,,2013-03-02 09:11:00,
2013-03-02 02:21:00,45.0,23.0,-100.00,North,-999,0.0,0.0,42,-99.99,,,0.00,,2013-03-02 09:21:00,
2013-03-02 02:31:00,44.0,23.0,-100.00,North,-999,0.0,0.0,43,-99.99,,,0.00,,2013-03-02 09:31:00,
2013-03-02 02:42:00,44.0,23.0,-100.00,North,-999,0.0,0.0,43,-99.99,,,0.00,,2013-03-02 09:42:00,
2013-03-02 02:51:00,44.0,23.0,-100.00,North,-999,0.0,0.0,43,-99.99,,,0.00,,2013-03-02 09:51:00,
2013-03-02 03:00:00,45.0,23.0,-100.00,North,-999,0.0,0.0,42,-99.99,,,0.00,,2013-03-02 10:00:00,
2013-03-02 03:15:00,44.0,22.0,-100.00,North,-999,0.0,0.0,42,-99.99,,,0.00,,2013-03-02 10:15:00,
2013-03-02 03:21:00,44.0,22.0,-100.00,North,-999,0.0,0.0,42,-99.99,,,0.00,,2013-03-02 10:21:00,
2013-03-02 03:31:00,45.0,23.0,-100.00,North,-999,0.0,0.0,42,-99.99,,,0.00,,2013-03-02 10:31:00,
2013-03-02 03:42:00,45.0,23.0,-100.00,North,-999,0.0,0.0,42,-99.99,,,0.00,,2013-03-02 10:42:00,
2013-03-02 03:51:00,45.0,23.0,-100.00,North,-999,0.0,0.0,42,-99.99,,,0.00,,2013-03-02 10:51:00,
2013-03-02 04:00:00,47.0,24.0,-100.00,North,-999,0.0,0.0,40,-99.99,,,0.00,,2013-03-02 11:00:00,
2013-03-02 04:11:00,45.0,23.0,-100.00,North,-999,0.0,0.0,42,-99.99,,,0.00,,2013-03-02 11:11:00,
2013-03-02 04:21:00,45.0,23.0,-100.00,North,-999,0.0,0.0,42,-99.99,,,0.00,,2013-03-02 11:21:00,
2013-03-02 04:31:00,47.0,24.0,-100.00,North,-999,0.0,0.0,40,-99.99,,,0.00,,2013-03-02 11:31:00,
2013-03-02 04:41:00,47.0,24.0,-100.00,North,-999,0.0,0.0,40,-99.99,,,0.00,,2013-03-02 11:41:00,
2013-03-02 04:52:00,47.0,24.0,-100.00,North,-999,0.0,0.0,40,-99.99,,,0.00,,2013-03-02 11:52:00,
2013-03-02 05:00:00,44.0,23.0,-100.00,North,-999,0.0,0.0,42,-99.99,,,0.00,,2013-03-02 12:00:00,
2013-03-02 05:11:00,46.0,23.0,-100.00,North,-999,0.0,0.0,41,-99.99,,,0.00,,2013-03-02 12:11:00,
2013-03-02 05:21:00,46.0,23.0,-100.00,North,-999,0.0,0.0,41,-99.99,,,0.00,,2013-03-02 12:21:00,
2013-03-02 05:32:00,44.0,23.0,-100.00,North,-999,0.0,0.0,42,-99.99,,,0.00,,2013-03-02 12:32:00,
2013-03-02 05:43:00,44.0,23.0,-100.00,North,-999,0.0,0.0,42,-99.99,,,0.00,,2013-03-02 12:43:00,
2013-03-02 05:53:00,44.0,23.0,-100.00,North,-999,0.0,0.0,42,-99.99,,,0.00,,2013-03-02 12:53:00,
2013-03-02 06:01:00,43.0,22.0,-100.00,North,-999,0.0,0.0,43,-99.99,,,0.00,,2013-03-02 13:01:00,
2013-03-02 06:11:00,44.0,22.0,-100.00,North,-999,0.0,0.0,42,-99.99,,,0.00,,2013-03-02 13:11:00,
2013-03-02 06:21:00,44.0,22.0,-100.00,North,-999,0.0,0.0,42,-99.99,,,0.00,,2013-03-02 13:21:00,
2013-03-02 06:31:00,43.0,22.0,-100.00,North,-999,0.0,0.0,43,-99.99,,,0.00,,2013-03-02 13:31:00,
2013-03-02 06:41:00,43.0,22.0,-100.00,North,-999,0.0,0.0,43,-99.99,,,0.00,,2013-03-02 13:41:00,
2013-03-02 06:52:00,43.0,22.0,-100.00,North,-999,0.0,0.0,43,-99.99,,,0.00,,2013-03-02 13:52:00,
2013-03-02 07:00:00,42.0,21.0,-100.00,North,-999,0.0,0.0,44,-99.99,,,0.00,,2013-03-02 14:00:00,
2013-03-02 07:11:00,42.0,22.0,-100.00,North,-999,0.0,0.0,43,-99.99,,,0.00,,2013-03-02 14:11:00,
2013-03-02 07:21:00,42.0,22.0,-100.00,North,-999,0.0,0.0,43,-99.99,,,0.00,,2013-03-02 14:21:00,
2013-03-02 07:32:00,42.0,21.0,-100.00,North,-999,0.0,0.0,44,-99.99,,,0.00,,2013-03-02 14:32:00,
2013-03-02 07:42:00,42.0,21.0,-100.00,North,-999,0.0,0.0,44,-99.99,,,0.00,,2013-03-02 14:42:00,
2013-03-02 07:52:00,42.0,21.0,-100.00,North,-999,0.0,0.0,44,-99.99,,,0.00,,2013-03-02 14:52:00,
2013-03-02 08:00:00,43.0,23.0,-100.00,North,-999,0.0,0.0,44,-99.99,,,0.00,,2013-03-02 15:00:00,
2013-03-02 08:11:00,42.0,22.0,-100.00,North,-999,0.0,0.0,44,-99.99,,,0.00,,2013-03-02 15:11:00,
2013-03-02 08:21:00,42.0,22.0,-100.00,North,-999,0.0,0.0,44,-99.99,,,0.00,,2013-03-02 15:21:00,
2013-03-02 08:31:00,43.0,23.0,-100.00,North,-999,0.0,0.0,44,-99.99,,,0.00,,2013-03-02 15:31:00,
2013-03-02 08:41:00,43.0,23.0,-100.00,North,-999,0.0,0.0,44,-99.99,,,0.00,,2013-03-02 15:41:00,
2013-03-02 08:51:00,43.0,23.0,-100.00,North,-999,0.0,0.0,44,-99.99,,,0.00,,2013-03-02 15:51:00,
2013-03-02 09:00:00,46.0,24.0,-100.00,North,-999,0.0,0.0,41,-99.99,,,0.00,,2013-03-02 16:00:00,
2013-03-02 09:11:00,45.0,23.0,-100.00,North,-999,0.0,0.0,42,-99.99,,,0.00,,2013-03-02 16:11:00,
2013-03-02 09:21:00,45.0,23.0,-100.00,North,-999,0.0,0.0,42,-99.99,,,0.00,,2013-03-02 16:21:00,
2013-03-02 09:31:00,46.0,24.0,-100.00,North,-999,0.0,0.0,41,-99.99,,,0.00,,2013-03-02 16:31:00,
2013-03-02 09:41:00,46.0,24.0,-100.00,North,-999,0.0,0.0,41,-99.99,,,0.00,,2013-03-02 16:41:00,
2013-03-02 09:51:00,46.0,24.0,-100.00,North,-999,0.0,0.0,41,-99.99,,,0.00,,2013-03-02 16:51:00,
2013-03-02 10:01:00,51.0,25.0,-100.00,North,-999,0.0,0.0,36,-99.99,,,0.00,,2013-03-02 17:01:00,
2013-03-02 10:11:00,50.0,25.0,-100.00,North,-999,0.0,0.0,38,-99.99,,,0.00,,2013-03-02 17:11:00,
2013-03-02 10:21:00,50.0,25.0,-100.00,North,-999,0.0,0.0,38,-99.99,,,0.00,,2013-03-02 17:21:00,
2013-03-02 10:32:00,51.0,25.0,-100.00,North,-999,0.0,0.0,36,-99.99,,,0.00,,2013-03-02 17:32:00,
2013-03-02 10:41:00,51.0,25.0,-100.00,North,-999,0.0,0.0,36,-99.99,,,0.00,,2013-03-02 17:41:00,
2013-03-02 10:52:00,51.0,25.0,-100.00,North,-999,0.0,0.0,36,-99.99,,,0.00,,2013-03-02 17:52:00,
2013-03-02 11:11:00,52.0,26.0,-100.00,North,-999,0.0,0.0,36,-99.99,,,0.00,,2013-03-02 18:11:00,
2013-03-02 11:22:00,52.0,26.0,-100.00,North,-999,0.0,0.0,36,-99.99,,,0.00,,2013-03-02 18:22:00,
2013-03-02 11:31:00,55.0,26.0,-100.00,North,-999,0.0,0.0,33,-99.99,,,0.00,,2013-03-02 18:31:00,
2013-03-02 11:42:00,55.0,26.0,-100.00,North,-999,0.0,0.0,33,-99.99,,,0.00,,2013-03-02 18:42:00,
2013-03-02 11:51:00,55.0,26.0,-100.00,North,-999,0.0,0.0,33,-99.99,,,0.00,,2013-03-02 18:51:00,
2013-03-02 12:01:00,55.0,26.0,-100.00,North,-999,0.0,0.0,33,-99.99,,,0.00,,2013-03-02 19:01:00,
2013-03-02 12:11:00,56.0,27.0,-100.00,North,-999,0.0,0.0,32,-99.99,,,0.00,,2013-03-02 19:11:00,
2013-03-02 12:21:00,56.0,27.0,-100.00,North,-999,0.0,0.0,32,-99.99,,,0.00,,2013-03-02 19:21:00,
2013-03-02 12:31:00,58.0,27.0,-100.00,North,-999,0.0,0.0,31,-99.99,,,0.00,,2013-03-02 19:31:00,
2013-03-02 12:42:00,58.0,27.0,-100.00,North,-999,0.0,0.0,31,-99.99,,,0.00,,2013-03-02 19:42:00,
2013-03-02 12:52:00,58.0,27.0,-100.00,North,-999,0.0,0.0,31,-99.99,,,0.00,,2013-03-02 19:52:00,
2013-03-02 13:00:00,61.0,27.0,-100.00,North,-999,0.0,0.0,28,-99.99,,,0.00,,2013-03-02 20:00:00,
2013-03-02 13:01:00,58.0,27.0,-100.00,North,-999,0.0,0.0,31,-99.99,,,0.00,,2013-03-02 20:01:00,
2013-03-02 13:11:00,59.0,27.0,-100.00,North,-999,0.0,0.0,29,-99.99,,,0.00,,2013-03-02 20:11:00,
2013-03-02 13:21:00,59.0,27.0,-100.00,North,-999,0.0,0.0,29,-99.99,,,0.00,,2013-03-02 20:21:00,
2013-03-02 13:32:00,61.0,27.0,-100.00,North,-999,0.0,0.0,28,-99.99,,,0.00,,2013-03-02 20:32:00,
2013-03-02 13:42:00,61.0,27.0,-100.00,North,-999,0.0,0.0,28,-99.99,,,0.00,,2013-03-02 20:42:00,
2013-03-02 13:52:00,61.0,27.0,-100.00,North,-999,0.0,0.0,28,-99.99,,,0.00,,2013-03-02 20:52:00,
2013-03-02 14:00:00,59.0,27.0,-100.00,North,-999,0.0,0.0,29,-99.99,,,0.00,,2013-03-02 21:00:00,
2013-03-02 14:11:00,59.0,27.0,-100.00,North,-999,0.0,0.0,29,-99.99,,,0.00,,2013-03-02 21:11:00,
2013-03-02 14:22:00,59.0,27.0,-100.00,North,-999,0.0,0.0,29,-99.99,,,0.00,,2013-03-02 21:22:00,
2013-03-02 14:31:00,59.0,27.0,-100.00,North,-999,0.0,0.0,29,-99.99,,,0.00,,2013-03-02 21:31:00,
2013-03-02 14:42:00,59.0,27.0,-100.00,North,-999,0.0,0.0,29,-99.99,,,0.00,,2013-03-02 21:42:00,
2013-03-02 14:52:00,59.0,27.0,-100.00,North,-999,0.0,0.0,29,-99.99,,,0.00,,2013-03-02 21:52:00,
2013-03-02 16:52:00,55.0,26.0,-100.00,North,-999,0.0,0.0,33,-99.99,,,0.00,,2013-03-02 23:52:00,
2013-03-02 17:00:00,53.0,26.0,-100.00,North,-999,0.0,0.0,34,-99.99,,,0.00,,2013-03-03 00:00:00,
2013-03-02 17:02:00,55.0,26.0,-100.00,North,-999,0.0,0.0,33,-99.99,,,0.00,,2013-03-03 00:02:00,
2013-03-02 17:11:00,54.0,26.0,-100.00,North,-999,0.0,0.0,33,-99.99,,,0.00,,2013-03-03 00:11:00,
2013-03-02 17:22:00,54.0,26.0,-100.00,North,-999,0.0,0.0,33,-99.99,,,0.00,,2013-03-03 00:22:00,
2013-03-02 17:32:00,53.0,26.0,-100.00,North,-999,0.0,0.0,34,-99.99,,,0.00,,2013-03-03 00:32:00,
2013-03-02 17:42:00,53.0,26.0,-100.00,North,-999,0.0,0.0,34,-99.99,,,0.00,,2013-03-03 00:42:00,
2013-03-02 17:52:00,53.0,26.0,-100.00,North,-999,0.0,0.0,34,-99.99,,,0.00,,2013-03-03 00:52:00,
2013-03-02 18:00:00,48.0,25.0,-100.00,North,-999,0.0,0.0,40,-99.99,,,0.00,,2013-03-03 01:00:00,
2013-03-02 18:11:00,52.0,25.0,-100.00,North,-999,0.0,0.0,35,-99.99,,,0.00,,2013-03-03 01:11:00,
2013-03-02 18:21:00,52.0,25.0,-100.00,North,-999,0.0,0.0,35,-99.99,,,0.00,,2013-03-03 01:21:00,
2013-03-02 18:31:00,48.0,25.0,-100.00,North,-999,0.0,0.0,40,-99.99,,,0.00,,2013-03-03 01:31:00,
2013-03-02 18:41:00,48.0,25.0,-100.00,North,-999,0.0,0.0,40,-99.99,,,0.00,,2013-03-03 01:41:00,
2013-03-02 18:52:00,48.0,25.0,-100.00,North,-999,0.0,0.0,40,-99.99,,,0.00,,2013-03-03 01:52:00,
2013-03-02 19:00:00,50.0,26.0,-100.00,North,-999,0.0,0.0,40,-99.99,,,0.00,,2013-03-03 02:00:00,
2013-03-02 19:11:00,53.0,27.0,-100.00,North,-999,0.0,0.0,37,-99.99,,,0.00,,2013-03-03 02:11:00,
2013-03-02 19:21:00,53.0,27.0,-100.00,North,-999,0.0,0.0,37,-99.99,,,0.00,,2013-03-03 02:21:00,
2013-03-02 19:31:00,50.0,26.0,-100.00,North,-999,0.0,0.0,40,-99.99,,,0.00,,2013-03-03 02:31:00,
2013-03-02 19:41:00,50.0,26.0,-100.00,North,-999,0.0,0.0,40,-99.99,,,0.00,,2013-03-03 02:41:00,
2013-03-02 19:52:00,50.0,26.0,-100.00,North,-999,0.0,0.0,40,-99.99,,,0.00,,2013-03-03 02:52:00,
2013-03-02 20:00:00,48.0,26.0,-100.00,North,-999,0.0,0.0,41,-99.99,,,0.00,,2013-03-03 03:00:00,
2013-03-02 20:11:00,48.0,27.0,-100.00,North,-999,0.0,0.0,43,-99.99,,,0.00,,2013-03-03 03:11:00,
2013-03-02 20:21:00,48.0,27.0,-100.00,North,-999,0.0,0.0,43,-99.99,,,0.00,,2013-03-03 03:21:00,
2013-03-02 20:31:00,48.0,26.0,-100.00,North,-999,0.0,0.0,41,-99.99,,,0.00,,2013-03-03 03:31:00,
2013-03-02 20:41:00,48.0,26.0,-100.00,North,-999,0.0,0.0,41,-99.99,,,0.00,,2013-03-03 03:41:00,
2013-03-02 20:51:00,48.0,26.0,-100.00,North,-999,0.0,0.0,41,-99.99,,,0.00,,2013-03-03 03:51:00,
2013-03-02 21:00:00,49.0,26.0,-100.00,North,-999,0.0,0.0,41,-99.99,,,0.00,,2013-03-03 04:00:00,
2013-03-02 21:11:00,48.0,26.0,-100.00,North,-999,0.0,0.0,41,-99.99,,,0.00,,2013-03-03 04:11:00,
2013-03-02 21:21:00,48.0,26.0,-100.00,North,-999,0.0,0.0,41,-99.99,,,0.00,,2013-03-03 04:21:00,
2013-03-02 21:31:00,49.0,26.0,-100.00,North,-999,0.0,0.0,41,-99.99,,,0.00,,2013-03-03 04:31:00,
2013-03-02 21:41:00,49.0,26.0,-100.00,North,-999,0.0,0.0,41,-99.99,,,0.00,,2013-03-03 04:41:00,
2013-03-02 21:51:00,49.0,26.0,-100.00,North,-999,0.0,0.0,41,-99.99,,,0.00,,2013-03-03 04:51:00,
2013-03-02 22:11:00,47.0,25.0,-100.00,North,-999,0.0,0.0,42,-99.99,,,0.00,,2013-03-03 05:11:00,
2013-03-02 22:22:00,47.0,25.0,-100.00,North,-999,0.0,0.0,42,-99.99,,,0.00,,2013-03-03 05:22:00,
2013-03-02 22:32:00,47.0,26.0,-100.00,North,-999,0.0,0.0,42,-99.99,,,0.00,,2013-03-03 05:32:00,
2013-03-02 22:42:00,47.0,26.0,-100.00,North,-999,0.0,0.0,42,-99.99,,,0.00,,2013-03-03 05:42:00,
2013-03-02 22:52:00,47.0,26.0,-100.00,North,-999,0.0,0.0,42,-99.99,,,0.00,,2013-03-03 05:52:00,
2013-03-02 23:00:00,47.0,24.0,-100.00,North,-999,0.0,0.0,41,-99.99,,,0.00,,2013-03-03 06:00:00,
2013-03-02 23:01:00,47.0,26.0,-100.00,North,-999,0.0,0.0,42,-99.99,,,0.00,,2013-03-03 06:01:00,
2013-03-02 23:11:00,48.0,26.0,-100.00,North,-999,0.0,0.0,41,-99.99,,,0.00,,2013-03-03 06:11:00,
2013-03-02 23:21:00,48.0,26.0,-100.00,North,-999,0.0,0.0,41,-99.99,,,0.00,,2013-03-03 06:21:00,
2013-03-02 23:31:00,47.0,24.0,-100.00,North,-999,0.0,0.0,41,-99.99,,,0.00,,2013-03-03 06:31:00,
2013-03-02 23:42:00,47.0,24.0,-100.00,North,-999,0.0,0.0,41,-99.99,,,0.00,,2013-03-03 06:42:00,
2013-03-02 23:52:00,47.0,24.0,-100.00,North,-999,0.0,0.0,41,-99.99,,,0.00,,2013-03-03 06:52:00,